www.pogodaiklimat.ru

Погода и климат >> Архив погоды >> Россия >> Красноярский край >> Курейка


ПОГОДА в Курейке

  • Прогноз погоды в Курейке
  • Монитор погоды в Курейке

АРХИВ ПОГОДЫ в Курейке

Время (UTC), дата Ветер
(напр.,м/с)
 
Видим.   Явления Облачность Т
(С)
Тd
(С)
f
(%)
Тe
(С)
Тes
(С)
Комфортность P
(гПа)
Po
(гПа)
Тmin
(С)
Tmax
(С)
R
(мм)
R24
(мм)
S
(см)
21 19.03 Ю 1 10 км слаб. ливневой снег 10/10 600 м
[Cb cap]
-10.4 -11.7 90 -13 -13 1025.0 1021.3
00 20.03 Ю 1 4000 м слаб. ливневой снег 10/10 600 м
[Cb cap]
-9.5 -10.7 91 -12 -12 1024.0 1020.3 -10.5 1 93
03 20.03 Ю 3 10 км слаб. ливневой снег 10/10 600 м
[Cb cap]
-7.8 -8.7 93 -14 -14 1023.7 1020.0
06 20.03 ЮЗ 4 10 км слаб. ливневой снег 10/10 600 м
[Cb cap]
-5.4 -7.2 87 -12 -12 1023.7 1020.0
09 20.03 Ю 3 10 км слаб. ливневой снег 10/10 600 м
[Cb cap]
-3.4 -5.2 87 -9 -9 1023.6 1020.0
12 20.03 Ю 3 10 км слаб. ливневой снег 10/10 600 м
[Cb cap]
-3.8 -5.6 87 -9 -9 1021.3 1017.7 -3.2 2
15 20.03 Ю 4 10 км слаб. ливневой снег 10/10 600 м
[Cb cap]
-4.8 -7.6 81 -11 -11 1020.9 1017.3
18 20.03 Ю 6-10
{12}
10 км слаб. ливневой снег {метель} 10/10 600 м
[Cb cap]
-5.2 -7.7 83 -13 -13 1016.8 1013.2
21 20.03 Ю 5-10
{11}
10 км слаб. ливневой снег {метель} 10/10 600 м
[Cb cap]
-9.8 -6.8 100 -18 -18 1013.7 1010.1
00 21.03 Ю 5-10
{11}
20 км позёмок {ливн. осадки} 10/10 600 м
[Cb cap]
-3.6 -6.1 83 -10 -10 1010.5 1006.9 -5.2 2 94
03 21.03 Ю 4
{11}
50 км позёмок 10/10 600 м
[Cb cap]
-1.5 -2.6 92 -7 -7 1008.3 1004.8
06 21.03 Ю 5
{11}
50 км позёмок 10/10 600 м
[Sc]
-0.6 -1.8 92 -7 -7 1006.4 1002.9
09 21.03 Ю 5
{13}
4000 м снег {метель} 10/10 600 м
[Sc]
-0.1 -0.7 96 -6 -6 1006.2 1002.7
12 21.03 ЮЗ 4
{10}
10 км слаб. снег {метель} 10/10 600 м
[Sc]
-2.0 -2.6 96 -8 -8 1006.1 1002.6 +0.1 0.9
15 21.03 З 3 10 км слаб. снег 10/10 600 м
[Sc]
-2.8 -3.5 95 -8 -8 1007.6 1004.0
18 21.03 З 3 50 км {снег, метель} 10/10 600 м
[Sc]
-3.7 -4.8 92 -9 -9 1007.6 1004.0
21 21.03 ЮЗ 3 50 км 10/10 600 м
[Sc]
-4.9 -5.9 93 -11 -11 1007.6 1004.0
00 22.03 Ю 2 10 км слаб. ливневой снег 10/10 600 м
[Cb cap]
-3.3 -4.1 94 -8 -8 1006.9 1003.3 -4.2 0.4 100
03 22.03 ЮЗ 2 4000 м ливневой снег 10/10 600 м
[Cb cap]
-3.6 -4.4 94 -8 -8 1007.6 1004.0 -3.6
06 22.03 З 4 50 км {ливн. осадки} 10/10 600 м
[Sc]
-1.5 -3.5 86 -7 -7 1007.5 1004.0
09 22.03 З 4 50 км 10/10 600 м
[Sc]
-0.5 -1.9 90 -6 -6 1008.8 1005.3
12 22.03 З 5 4000 м ливневой снег 10/10 600 м
[Cb cap]
+0.2 -2.2 84 -6 -6 1010.2 1006.7 +0.2 0.6
15 22.03 З 2 10 км слаб. ливневой снег 10/10 600 м
[Cb cap]
-0.8 -1.8 93 -5 -5 1011.5 1008.0
18 22.03 СЗ 2 10 км слаб. ливневой снег 10/10 600 м
[Cb cap]
-2.2 -3.5 91 -6 -6 1012.9 1009.3
21 22.03 С 1 50 км {ливн. осадки} 10/10 600 м
[Sc]
-5.0 -6.7 88 -7 -7 1014.3 1010.7
00 23.03 С 2 50 км 8/4 600 м
[Sc Ac trans Ci fib]
-10.0 -11.2 91 -15 -15 1013.9 1010.3 -10.0 2 102
03 23.03 З 1 50 км 4/0 2000 м
[Ac trans Ci fib]
-12.4 -15.1 80 -15 -13 1017.0 1013.3
06 23.03 штиль 0 50 км 8/4 600 м
[Sc Ac trans]
-7.4 -12.3 68 -8 -6 1017.0 1013.3
09 23.03 штиль 0 20 км слаб. снег 10/10 600 м
[Sc]
-6.4 -10.4 73 -7 -7 1018.3 1014.7
12 23.03 СЗ 1 10 км слаб. ливневой снег 10/10 600 м
[Cb cap]
-6.2 -8.9 81 -9 -9 1016.7 1013.1 -6.0 0.3
15 23.03 штиль 0 50 км {ливн. осадки} 6/3 600 м
[Sc Ci fib]
-9.8 -13.4 75 -10 -10 1017.0 1013.3
18 23.03 В 1 н/о 10/10 600 м
[Sc]
-9.2 -12.2 79 -11 -11 1017.0 1013.3
21 23.03 штиль 0 50 км 8/8 600 м
[Sc]
-9.2 -11.2 85 -10 -10 1017.0 1013.3
00 24.03 штиль 0 50 км 8/6 600 м
[Sc Cs]
-9.4 -11.0 88 -10 -10 1015.0 1011.4 -9.8 0.0 102
03 24.03 штиль 0 50 км 10/0 2000 м
[As op]
-7.8 -8.7 93 -9 -9 1014.4 1010.7
06 24.03 ЮВ 2 50 км 9/0 2000 м
[Ac trans Ci fib]
-4.1 -5.3 91 -8 -6 1014.5 1010.9
09 24.03 ЮВ 2 50 км 9/0 2000 м
[Ac trans Ci fib]
-2.5 -3.8 91 -7 -5 1015.6 1012.1
12 24.03 штиль 0 50 км {снег} 10/0 2000 м
[As op]
-0.8 -2.1 91 -2 -2 1016.3 1012.8 -0.6 0.0
15 24.03 штиль 0 20 км слаб. снег 10/10 600 м
[Sc]
-2.4 -3.3 94 -4 -4 1017.0 1013.5
18 24.03 Ю 1 50 км {снег} 10/10 600 м
[Sc]
-3.8 -4.6 94 -6 -6 1017.9 1014.3
21 24.03 Ю 1 20 км слаб. снег 10/10 600 м
[Sc]
-4.9 -6.0 92 -7 -7 1018.7 1015.1
00 25.03 Ю 1 50 км {снег} 10/10 600 м
[Sc]
-4.8 -5.8 93 -7 -7 1019.3 1015.7 -4.9 0.2 102
06 25.03 Ю 3 50 км {снег} 9/0 2000 м
[Ac und Cs]
-0.4 -3.1 82 -5 -5 1020.9 1017.3
09 25.03 З 4 50 км 6 баллов +0.5 -4.1 71 -5 -4 1022.3 1018.7
12 25.03 Ю 2 50 км 3/0
[Ci fib]
-1.0 -6.4 67 -4 -4 1022.7 1019.1 +0.5 0.4
15 25.03 Ю 3 50 км 7 баллов -2.8 -7.7 69 -8 -8 1023.6 1020.0
21 25.03 Ю 2 50 км 8/0
[Cs]
-4.0 -8.5 71 -8 -8 1023.2 1019.6
00 26.03 Ю 2 50 км 10/0 2000 м
[As op]
-4.8 -6.1 91 -9 -9 1023.3 1019.7 -4.8 97
03 26.03 Ю 3 50 км 10 баллов -2.2 -6.0 75 -7 -7 1024.9 1021.3
06 26.03 Ю 4 50 км 10 баллов +1.0 -4.6 66 -4 -4 1026.3 1022.7
09 26.03 Ю 5 50 км 10 баллов +4.2 -4.0 55 -0 -0 1026.2 1022.7
12 26.03 Ю 4 50 км 10/10 600 м
[Sc]
-3.0 -10.2 58 -9 -9 1023.8 1020.2 -10.0
15 26.03 Ю 4 50 км 10 баллов -3.5 -7.5 74 -9 -9 1024.9 1021.3
18 26.03 Ю 6-10
{12}
50 км 6/3 600 м
[Sc Ci fib]
-1.2 -5.5 73 -8 -8 1022.8 1019.2

 

Местоположение метеостанции Курейка (Красноярский край, Россия): широта 66.47 долгота 87.22 высота над уровнем моря 28 м.

В архиве по умолчанию представлена погода в Курейке за последнюю неделю. Архивные данные за месяц целиком и за предыдущие месяцы, начиная с января 2011 года, Вы можете получить, выбрав интересующий диапазон дат из раскрывающегося списка и нажав кнопку "Ввод!".


*Определитесь, кто Вы:
робот инопланетянин человек

Внимание! Время в таблицах - всемирное. Для получения местного времени необходимо прибавить поправку, которая равна 7 ч.

Смотрите также архив погоды в соседних городах и на ближайших метеорологических станциях:

Погода в Светлогорске (Красноярский край, Россия) (75 км)
Погода в Туруханске (Красноярский край, Россия) (83 км)
Погода в Игарке (Красноярский край, Россия) (115 км)
Погода в Горбиачине (Красноярский край, Россия) (115 км)
Погода в Советской Речке (Красноярский край, Россия) (156 км)
Погода в Большом Пороге (Эвенкия, Россия) (158 км)
Погода в Снежногорске (Красноярский край, Россия) (183 км)
Погода в Красноселькупске (Ямало-Ненецкий АО, Россия) (231 км)
Погода в Потапово (Красноярский край, Россия) (248 км)
Погода в Верещагино (Красноярский край, Россия) (249 км)

Пояснения к столбцам:

Ветер - указаны скорость ветра в м/с - средняя за 10 мин, порывы в срок и между сроками (в фигурных скобках) и направление, откуда дует ветер: С - северный, СВ - северо-восточный, В - восточный, ЮВ - юго-восточный, Ю - южный, ЮЗ - юго-западный, З - западный, СЗ - северо-западный.
Видимость - горизонтальная дальность видимости в метрах или километрах. При видимости от 1 до 10 км при отсутствии осадков обычно наблюдается дымка, при ухудшении видимости до 1 км и менее - туман. В сухую погоду видимость может ухудшаться дымом, пылью или мглою.
Явления - указаны атмосферные явления, наблюдавшиеся в срок или в последний час перед сроком; фигурными скобками обозначены явления, наблюдавшиеся между сроками (за 1-3 часа до срока); квадратными скобками обозначены град или гололедные отложения с указанием их диаметра в мм.
Облачность - указаны через наклонную черту общая и нижняя облачность в баллах и высота нижней границы облаков в метрах; квадратными скобками обозначены формы облаков: Ci - перистые, Cs - перисто-слоистые, Cc - перисто-кучевые, Ac - высококучевые, As - высокослоистые, Sc - слоисто-кучевые, Ns - слоисто-дождевые, Cu - кучевые, Cb - кучево-дождевые. Подробнее классификацию облаков см. в Атласе облаков (PDF).
T - Температура воздуха - температура, измеренная на высоте 2 м над землей.
Td - Температура точки росы - температура, при понижении до которой содержащийся в воздухе водяной пар достигнет насыщения.
f - Относительная влажность воздуха - влажноcть воздуха, измеренная на высоте 2 м над землей.
Te - Эффективная температура - температура, которую ощущает одетый по сезону человек в тени. Характеристика душности погоды. При расчете учитывается влияние влажности воздуха и скорости ветра на теплоощущения человека.
Tes - Эффективная температура на солнце - температура, которую ощущает человек, с поправкой на солнечный нагрев. Характеристика знойности погоды. Зависит от высоты солнца над горизонтом, облачности и скорости ветра. Ночью, в пасмурную погоду, а также при ветре 12 м/с и более поправка равна нулю.
P - Атмосферное давление - приведенное к уровню моря атмосферное давление.
Po - Атмосферное давление - измеренное на уровне метеостанции атмосферное давление.
Tmin - Минимальная температура - минимум температуры воздуха на высоте 2 м над землей.
Tmax - Максимальная температура - максимум температуры воздуха на высоте 2 м над землей.
R - Количество осадков - Количество выпавших осадков за период времени, мм. При наведении курсора мыши на число - период времени, за который выпало указанное количество осадков.
R24 - Количество осадков - Количество выпавших осадков за 24 часа, мм.
S - Снежный покров - Высота снежного покрова, см. При наведении курсора мыши на число - состояние снежного покрова и степень покрытия местности в баллах.